Theta_e
364 362 360 353 324 325 314 319 325 323 328 336 337 334 331 327 323 315 339 346 345 347 353 359 364 365 364 364 365 365 364 363 365 364 364 363 363 363 364 364 364 364 365 363 363 362 361 362 363
361 360 357 342 319 309 312 323 318 323 333 336 336 335 332 328 334 332 335 345 346 349 353 358 364 365 364 363 364 365 364 363 364 364 364 363 363 361 361 362 363 363 364 362 362 362 362 362 362
364 365 340 330 320 310 313 323 321 330 335 336 334 339 336 333 336 336 345 346 351 350 352 359 366 367 364 364 363 364 364 364 362 362 362 362 362 361 361 362 361 362 361 359 361 362 362 362 362
356 349 341 318 313 321 322 325 328 332 336 337 337 332 340 345 342 344 347 348 350 354 359 364 367 365 365 365 365 364 364 363 363 362 360 359 361 362 361 360 360 360 361 359 359 362 361 361 359
353 340 322 312 318 322 324 326 333 331 334 335 336 332 335 344 350 350 350 352 354 355 359 361 368 366 365 365 363 365 363 363 362 360 361 362 361 360 360 359 358 360 360 359 357 361 359 355 355
333 330 311 308 316 324 327 329 331 333 336 335 334 335 336 346 347 348 351 351 354 354 357 357 365 366 366 364 364 364 363 361 360 363 362 362 360 359 358 358 359 361 360 361 360 357 358 359 359
331 320 313 314 316 321 326 331 326 332 334 333 338 331 338 341 347 350 351 352 352 352 353 357 358 360 364 365 365 361 361 361 362 361 356 355 355 357 357 355 356 358 358 357 358 358 359 359 359
326 321 318 316 317 321 329 330 332 333 333 341 340 330 332 342 348 347 351 349 352 352 352 352 354 356 356 358 363 362 362 361 361 357 353 351 350 350 351 353 353 354 354 354 356 358 357 358 358
331 314 312 318 320 324 331 328 333 340 337 339 341 338 341 348 344 338 342 341 343 347 349 352 353 355 352 357 360 362 361 359 358 354 352 348 339 340 342 346 346 347 352 355 356 357 358 358 358
323 314 316 325 325 326 331 331 330 335 334 336 337 341 345 345 339 334 334 337 338 344 347 350 352 352 354 358 355 352 352 348 349 348 344 342 339 338 341 345 348 350 349 351 355 358 359 357 351
323 318 324 325 325 325 328 328 332 334 331 335 335 337 341 343 342 339 338 338 341 344 347 346 351 349 352 354 355 353 350 347 346 347 343 342 343 343 340 342 341 340 343 343 347 349 350 349 350
317 324 324 327 326 323 327 331 329 334 336 341 339 340 340 340 340 338 338 338 340 341 343 346 346 348 350 351 349 350 350 349 341 338 345 340 340 340 339 338 337 335 338 337 342 345 346 348 348
317 323 325 329 328 327 332 329 330 333 339 341 341 340 338 339 340 341 342 340 340 339 343 347 351 350 350 349 350 349 349 349 344 342 342 342 339 338 340 340 344 342 340 341 344 344 343 344 345
321 324 323 325 327 331 329 330 331 334 339 338 338 336 337 338 339 340 340 340 339 340 341 349 349 351 349 348 347 343 343 350 348 345 344 342 342 342 346 345 344 347 348 347 347 346 346 345 345
321 319 321 322 326 328 330 325 327 334 336 334 335 334 337 340 341 339 339 340 339 340 342 344 349 351 350 347 347 348 350 351 350 348 348 347 347 346 346 346 344 346 349 348 347 347 346 345 346
315 317 311 324 325 327 322 315 328 334 333 331 333 333 332 335 338 340 341 342 341 342 341 343 350 348 349 350 349 349 350 347 347 347 346 344 348 348 347 347 347 349 348 348 347 345 344 344 342
313 307 313 317 325 323 322 318 328 333 332 330 330 330 332 332 333 338 341 343 341 341 346 342 344 347 348 352 353 353 351 349 349 349 348 346 343 344 345 349 349 350 348 348 348 346 345 343 340
309 309 313 313 320 322 320 318 326 330 331 329 329 331 331 332 334 338 343 343 337 338 349 343 347 347 348 352 355 353 352 353 353 352 351 350 348 346 346 348 351 349 347 347 346 345 346 345 344
315 313 312 316 321 319 319 320 324 328 329 328 328 329 331 332 337 339 342 345 343 343 348 351 348 351 351 353 351 351 351 352 352 350 351 353 354 351 352 351 350 351 346 346 347 346 344 342 346
315 312 312 315 316 312 318 320 325 327 327 328 329 329 332 333 335 338 339 346 346 347 351 351 353 356 354 354 352 353 351 353 354 354 355 358 355 353 353 351 350 350 348 346 345 345 342 345 345
310 306 310 311 314 313 312 315 321 326 328 329 331 332 332 333 335 337 338 340 347 348 351 352 355 358 356 356 359 356 353 353 351 353 353 355 358 356 355 353 353 350 349 346 346 347 342 340 343
304 316 316 315 306 301 310 299 316 319 320 326 328 329 331 334 337 338 338 338 340 349 354 356 359 361 358 358 357 353 351 348 350 351 356 356 358 360 354 354 352 353 352 348 348 351 348 344 337
312 318 316 315 304 300 305 308 311 313 314 316 319 327 336 332 332 332 333 337 336 344 353 358 361 362 361 363 360 357 352 354 353 350 353 353 355 358 360 354 352 352 352 351 351 349 348 347 340
318 313 311 308 303 295 302 309 309 310 313 314 318 327 328 329 333 336 338 335 338 343 350 362 360 359 358 361 360 356 354 353 352 351 349 350 352 354 356 356 355 352 351 351 352 352 350 347 346
312 305 296 296 296 296 306 309 308 318 318 321 322 327 330 331 326 332 333 332 342 346 356 358 357 355 357 357 357 356 353 353 353 351 347 349 349 352 352 352 352 355 352 353 354 353 348 348 348
309 305 296 293 295 301 305 303 310 318 319 319 322 331 326 323 327 328 329 332 347 353 355 358 357 355 355 356 355 355 355 353 351 351 351 349 348 351 351 351 354 353 354 356 353 354 351 351 349
308 302 307 301 301 297 305 309 318 324 321 328 330 329 327 328 328 331 334 341 349 352 356 357 356 356 355 356 355 355 353 351 350 350 352 352 352 353 352 353 352 352 353 352 352 348 350 349 350
309 312 302 301 294 296 303 306 308 318 321 328 328 328 334 338 338 340 342 341 342 348 351 353 353 347 347 354 351 353 352 353 351 349 350 351 352 353 353 353 355 354 355 353 350 349 349 347 349
305 304 305 303 300 297 298 303 317 318 321 320 326 325 333 337 337 339 342 343 343 344 345 346 344 340 339 342 340 341 347 343 343 344 345 347 349 350 350 350 351 353 353 354 351 348 348 347 347
311 310 305 298 297 302 301 303 318 319 322 324 332 333 337 337 336 335 343 340 339 337 339 339 339 336 336 335 336 338 340 340 338 339 341 344 345 347 346 346 345 345 347 351 352 350 349 348 344
Wind_Speed
7 6 4 2 5 2 4 1 3 3 10 21 19 15 9 15 7 4 8 9 10 9 8 7 12 15 18 17 16 16 16 14 13 15 14 14 13 12 12 12 12 13 13 13 13 11 12 12 10
7 8 3 2 4 3 8 9 9 6 19 23 23 18 15 8 7 13 6 7 13 10 9 8 14 13 17 16 15 14 15 14 13 13 13 13 12 10 9 11 11 12 13 12 12 10 12 10 8
6 9 2 3 3 5 7 9 5 11 11 18 12 13 8 4 9 8 4 12 7 12 11 11 15 14 16 16 15 14 13 14 14 13 12 12 13 11 9 10 10 11 12 11 10 11 11 10 7
5 2 4 0 10 7 9 5 13 21 20 16 20 13 7 10 4 6 13 11 5 14 14 15 16 16 15 14 14 14 13 14 14 14 14 14 14 15 12 10 9 10 11 10 10 10 8 9 5
4 3 3 7 12 5 8 6 15 15 11 16 15 13 9 14 13 14 10 11 16 13 13 12 15 15 14 14 14 13 14 14 14 15 16 16 17 16 13 11 11 10 9 9 8 8 7 6 5
3 2 6 5 10 5 2 2 8 21 22 22 21 17 9 15 14 11 11 12 14 15 13 11 14 14 13 14 14 13 14 15 16 16 16 16 18 18 13 11 9 9 9 8 8 7 5 5 5
11 4 6 7 7 7 10 11 10 17 17 15 18 12 12 15 13 13 10 8 7 15 12 10 8 11 13 13 15 15 15 16 17 15 14 13 15 15 13 11 7 7 6 6 5 4 5 5 5
3 4 1 5 7 6 7 9 7 13 11 22 21 10 13 19 18 15 9 4 6 6 13 10 7 6 6 6 15 15 16 15 15 13 11 10 10 10 9 10 7 6 4 2 4 5 6 7 9
5 5 7 11 8 5 7 12 11 18 17 5 5 20 20 22 20 17 7 3 4 4 13 13 11 9 7 6 9 14 15 15 13 11 11 6 1 3 3 4 2 3 3 3 5 7 9 10 11
6 7 6 4 5 4 12 13 10 20 20 20 22 15 20 19 20 19 13 9 10 11 15 14 14 14 11 9 8 6 8 5 4 4 4 4 2 1 3 3 2 3 4 5 8 10 12 11 4
4 7 8 19 22 19 12 6 12 18 16 17 20 18 18 15 16 19 17 18 19 17 14 16 15 13 12 9 5 3 3 3 3 3 2 4 3 2 1 0 2 2 4 3 5 6 6 5 4
8 13 8 15 18 6 6 15 15 16 16 18 16 14 15 16 14 9 11 13 9 15 12 12 9 14 9 5 4 4 3 3 4 4 5 3 2 3 3 2 4 4 2 4 5 3 6 7 6
8 11 9 18 19 13 15 12 11 18 20 18 16 14 20 18 16 13 12 8 9 9 9 10 11 12 12 12 6 6 6 4 4 5 6 4 4 4 4 4 3 4 3 4 4 4 4 5 5
5 12 11 10 15 18 19 4 9 15 18 17 16 15 17 14 15 13 11 13 8 14 15 13 12 13 12 10 12 7 7 6 5 5 5 7 5 4 4 3 3 3 4 4 4 4 4 5 4
6 9 9 10 9 10 18 8 13 14 14 14 14 13 13 19 17 15 12 13 10 9 14 14 14 14 14 15 11 8 9 6 6 6 6 9 6 5 4 3 3 4 2 5 4 4 4 4 6
4 5 5 13 11 7 8 6 16 17 16 13 11 9 7 13 18 17 14 15 7 6 9 11 11 10 10 12 9 7 6 5 4 4 4 7 6 6 5 4 4 3 3 4 3 4 4 4 5
5 6 6 9 10 11 5 5 15 16 15 13 10 9 9 9 8 8 12 15 10 9 8 10 10 13 11 9 8 7 8 5 5 5 6 7 7 7 6 5 5 5 5 5 4 4 5 3 3
2 2 6 7 10 12 7 6 16 17 15 14 13 11 10 11 8 12 14 11 8 8 7 9 9 11 9 5 5 4 4 6 5 5 5 8 7 7 7 5 6 5 5 7 5 6 4 4 4
6 9 13 10 16 15 13 15 19 18 16 15 14 13 12 13 12 9 11 16 11 7 8 9 9 11 10 5 4 3 4 5 3 4 7 7 8 7 8 6 6 4 5 6 8 6 6 4 3
14 13 6 9 9 5 13 19 20 19 16 17 18 16 17 14 15 16 10 14 15 15 14 9 10 11 10 7 4 4 3 3 4 4 5 7 8 8 6 6 5 5 4 6 5 5 2 3 4
9 1 1 3 4 3 5 11 15 16 10 15 17 19 17 17 17 11 10 14 17 14 12 12 10 12 10 8 4 2 2 0 1 3 4 7 8 8 9 7 6 6 5 5 6 5 7 4 2
9 2 1 6 7 6 6 2 5 3 4 10 2 12 4 9 15 9 2 7 11 15 13 12 10 10 8 8 4 6 4 4 4 3 4 5 7 7 7 8 7 6 4 5 5 6 5 5 4
3 6 7 7 4 3 7 8 2 7 5 6 6 13 26 20 17 20 19 5 4 6 12 12 7 8 7 7 6 3 3 2 2 2 6 4 5 7 8 7 7 7 5 6 6 6 7 6 4
3 1 4 5 2 4 8 6 4 4 7 4 7 22 23 23 21 11 25 12 7 5 4 11 9 5 7 6 5 3 3 4 2 3 3 3 3 5 7 6 8 6 5 6 7 7 8 6 6
5 3 3 5 4 7 3 9 8 8 7 9 14 18 19 22 23 22 24 9 9 5 11 10 8 6 5 5 3 3 1 2 2 2 2 5 3 2 6 5 6 5 6 8 6 7 6 6 6
8 8 7 5 4 4 5 6 1 5 8 9 8 21 22 22 18 19 17 5 6 14 11 10 7 6 6 6 5 4 3 2 2 1 1 3 2 3 3 5 5 6 6 6 6 6 6 6 2
4 2 9 4 6 1 3 3 3 9 2 7 10 24 19 16 12 4 5 8 13 13 10 10 8 6 7 6 5 4 3 2 3 2 2 3 4 3 3 3 4 6 6 6 6 5 7 6 6
7 5 4 5 1 5 4 3 4 4 2 4 12 17 13 8 8 6 6 5 7 11 9 8 8 7 6 6 2 4 5 3 5 4 5 6 6 4 5 5 5 5 5 5 6 5 5 6 5
3 5 5 1 4 6 5 6 5 3 5 7 15 10 18 17 12 9 14 11 10 9 6 6 8 8 7 7 8 11 8 9 10 9 7 8 10 9 7 6 5 5 5 6 5 6 6 6 6
11 10 8 6 9 1 6 1 8 7 6 13 8 7 7 12 11 7 9 12 9 10 7 8 8 10 9 7 7 7 7 7 8 7 9 10 12 11 9 7 7 7 7 7 6 6 5 6 6
Wind_Direction
173 214 244 159 46 102 174 204 19 169 77 75 73 86 90 139 145 181 138 129 127 151 134 137 127 121 117 113 115 114 112 109 101 102 100 103 107 114 117 117 117 116 108 108 110 108 103 104 102
203 198 276 55 60 52 6 347 57 38 116 101 93 85 66 81 71 102 100 181 157 152 129 120 128 121 119 119 122 121 117 115 105 101 103 101 107 106 107 109 117 115 110 109 111 111 107 109 111
247 262 210 179 218 77 149 236 56 36 126 111 93 55 54 76 92 134 143 170 158 140 128 137 133 133 133 131 133 126 122 115 112 107 105 105 98 95 104 105 110 115 116 118 119 120 122 119 128
204 206 268 241 57 16 77 153 100 85 77 67 121 81 72 110 104 152 143 164 164 117 118 136 139 139 138 133 131 130 125 125 117 121 121 115 108 99 101 104 109 115 120 119 119 109 120 127 145
248 248 302 49 81 29 29 40 102 96 78 80 83 92 85 100 109 120 123 141 113 116 124 135 141 136 134 132 135 133 132 128 128 128 130 119 108 105 104 102 110 112 119 128 131 133 140 143 157
275 161 51 55 54 97 37 124 137 104 109 104 94 108 92 110 116 120 112 114 119 123 130 140 139 137 141 140 142 132 133 133 135 129 128 129 116 107 100 103 106 110 128 132 139 155 168 172 188
225 114 107 96 78 39 41 51 67 125 129 108 128 108 130 130 137 137 101 72 86 127 131 130 137 145 149 144 140 139 144 141 139 143 141 121 111 107 104 94 96 112 122 132 141 183 202 216 238
75 75 161 98 87 76 66 66 86 105 102 120 132 142 151 148 151 94 75 62 77 121 140 146 150 143 143 149 140 146 145 148 147 151 142 135 122 120 102 76 97 112 112 158 175 210 232 240 246
141 54 46 107 105 145 140 88 69 55 131 126 104 130 134 147 120 114 121 119 179 270 159 156 158 161 157 148 155 153 154 154 156 151 151 141 83 96 94 101 92 116 156 225 221 238 244 250 255
93 97 130 200 93 145 121 117 125 92 100 101 111 122 139 145 129 136 157 168 196 220 173 165 168 171 161 156 155 146 152 132 146 159 153 151 172 155 136 184 228 260 248 252 258 253 250 250 235
154 134 148 81 65 16 103 132 124 117 113 121 134 150 141 134 140 159 163 185 195 200 167 172 174 163 158 155 146 145 153 149 142 156 178 167 157 252 247 215 297 341 283 282 258 261 246 239 220
87 114 116 112 108 153 79 82 77 99 118 125 140 158 146 158 165 145 153 165 147 150 171 168 151 151 146 108 42 15 170 174 160 180 188 181 176 215 229 233 244 253 253 271 263 256 240 229 221
147 119 127 132 140 162 100 90 100 114 123 134 158 164 167 168 172 165 173 164 153 163 148 133 133 139 122 116 127 174 253 183 177 178 194 191 204 218 215 222 229 222 221 235 271 282 280 275 248
128 146 159 134 140 126 105 143 117 125 134 155 167 173 172 175 152 170 172 177 173 146 160 140 145 140 136 144 175 176 212 203 187 190 196 205 207 212 202 227 243 238 223 239 250 269 292 287 279
180 182 153 157 136 124 128 104 130 141 148 165 180 189 179 180 168 171 179 166 167 162 161 153 151 153 147 168 180 181 195 190 184 193 185 195 204 223 218 246 254 254 260 251 270 282 281 291 284
241 138 170 132 120 167 100 178 150 153 163 178 187 149 153 143 158 181 169 163 140 132 148 160 154 160 153 164 173 174 180 179 196 204 192 202 204 204 209 207 228 245 274 261 263 252 262 258 258
254 195 196 169 154 145 140 157 164 163 173 176 174 148 149 153 162 149 153 150 147 144 147 167 156 166 176 165 164 169 179 181 204 196 208 207 202 208 203 208 221 200 226 247 228 254 228 238 276
225 319 259 217 173 159 141 187 170 173 177 176 164 167 161 158 169 158 149 161 158 170 167 171 159 168 177 161 161 173 173 188 204 209 194 198 194 209 202 211 228 196 200 211 226 245 243 222 228
238 187 224 239 173 162 175 174 175 181 184 178 167 172 174 165 168 162 157 161 164 175 192 174 163 163 167 164 161 171 181 200 212 209 205 200 203 195 197 195 215 221 198 205 210 214 205 246 223
234 218 253 167 154 150 147 174 182 188 191 181 171 180 177 179 163 164 151 161 173 185 185 174 174 164 168 160 172 169 164 199 206 205 219 208 208 204 202 196 210 215 198 210 206 197 218 224 169
268 220 160 183 145 259 176 188 178 200 181 184 181 185 180 175 159 163 159 169 176 184 186 187 184 173 170 167 152 161 119 234 183 220 219 222 205 203 207 199 201 221 197 196 209 190 189 223 244
253 105 39 223 138 211 184 131 7 327 126 159 118 198 350 125 110 23 161 159 155 190 186 190 184 165 173 177 175 175 172 197 215 225 234 228 208 211 193 203 210 209 202 206 209 202 197 194 213
199 48 262 286 225 355 296 87 239 348 357 279 263 100 117 81 40 357 311 265 190 150 177 179 159 158 169 177 173 162 191 230 269 285 286 307 213 212 212 193 205 215 196 210 216 210 208 198 177
237 72 288 312 34 349 296 102 268 222 209 280 272 114 120 125 122 229 268 274 204 176 133 138 135 152 123 144 169 190 241 256 264 294 301 285 255 229 221 210 199 208 204 216 227 228 217 205 210
62 28 319 339 356 224 18 61 233 226 239 220 117 124 133 140 150 201 224 245 206 148 136 126 121 128 120 129 144 159 197 268 270 311 298 305 302 262 234 234 218 209 211 216 223 232 233 212 205
177 184 171 232 200 227 110 146 213 212 266 347 357 156 148 159 186 195 211 288 188 129 119 119 118 124 123 107 89 81 60 49 2 352 308 303 296 309 300 277 230 233 238 236 236 231 229 236 116
242 279 228 275 310 56 78 82 44 48 148 289 303 150 183 190 214 130 72 236 102 103 101 105 108 121 133 143 151 146 179 231 254 277 289 290 291 285 267 284 249 253 249 246 245 238 243 254 180
164 228 330 326 229 63 346 48 179 52 280 357 29 22 123 97 82 98 148 109 80 105 112 106 132 148 136 157 144 201 207 227 222 232 260 264 263 267 274 276 267 261 271 276 267 254 246 247 223
226 251 256 178 167 145 147 280 269 50 10 59 30 48 304 89 69 62 75 60 50 51 65 84 51 64 44 41 54 44 43 52 55 40 25 15 5 341 324 304 302 271 278 275 264 267 267 261 252
206 205 191 135 290 31 111 272 340 153 114 55 346 322 360 87 95 80 62 75 66 61 47 25 54 46 31 27 35 34 46 25 40 23 10 12 10 2 347 347 343 342 316 296 264 267 270 267 271